Погода в Гусь-Железном

Россия / Рязанская область     55°03′25″N   41°09′49″E
темп.,
°C
ветер,
м/с
пор.,
м/с
влажн.,
%
обл.,
%
осадки,
мм/ч
давл.,
гПа
погр.,
м
16 сентября, чт
чт1600:00+7зсз378076 0.0 1013505
03:00+6зсз3886100 0.1 1013412
06:00+6зсз41084100 0.1 1014468
09:00+6сз3892100 0.4 1015373
12:00+10сз4574100 0.1 1017980
15:00+10с4564100 0.3 10171042
18:00+9ссз3662100 0.0 1018845
21:00+7ссз2568100 0.0 1018256
17 сентября, пт
пт1700:00+7сз1370100 0.0 1019103
03:00+6ссз1471100 0.0 1019169
06:00+6сз1474100 0.0 1019157
09:00+7ссз2365100 0.0 1019539
12:00+9ссз2352100 0.1 10191496
15:00+9ссз3349100 0.1 10191264
18:00+8с2454100 0.0 1019216
21:00+5с26755 0.1 1021152
18 сентября, сб
сб1800:00+2ссв22753 0.0 102219
03:00+1с22830 0.0 102238
06:00+1ссв23955 0.0 102459
09:00+7св24615 0.0 1024567
12:00+10св445174 0.0 10241339
15:00+10св334845 0.0 10241385
18:00+7всв2362100 0.0 102462
21:00+7в2561100 0.0 1025132
19 сентября, вс
вс1900:00+6всв2670100 0.0 1025247
03:00+2всв3878100 0.0 1026190
06:00+2всв2680100 0.0 1026142
09:00+6в4757100 0.0 1026544
12:00+10в5644100 0.0 10261193
15:00+11в5739100 0.0 10241268
18:00+9в4946100 0.0 1023763
21:00+7всв61254100 0.0 1023666
20 сентября, пн
пн2000:00+7в61353100 0.0 1022770
03:00+7в61353100 0.1 1021789
06:00+5всв61579100 1.3 1021659
09:00+5всв71689100 3.9 1021791
12:00+5в71590100 0.9 1021936
15:00+6в71492100 2.0 1021877
18:00+5в71493100 1.1 1021912
21:00+5в71493100 3.3 1021914